Hammond, LA

6:52 AM CST on February 14, 2016 (GMT -0600)
Hammond Municipal

Weather History for KHDC - March, 2014

Change the Weather History Date:

Tuesday, March 18, 2014

  Actual Average (KMSY) Record (KMSY)
Temperature  
Mean Temperature 52 °F -  
Max Temperature 66 °F 72 °F 89 °F (1982)
Min Temperature 39 °F 52 °F 33 °F (1960)
Degree Days  
Heating Degree Days 12    
Growing Degree Days 2 (Base 50)    
Moisture  
Dew Point 40 °F    
Average Humidity 67    
Maximum Humidity 88    
Minimum Humidity 37    
Precipitation  
Precipitation 0.00 in - - ()
Sea Level Pressure  
Sea Level Pressure 29.95 in    
Wind  
Wind Speed 2 mph (SE)    
Max Wind Speed 14 mph    
Max Gust Speed 22 mph    
Visibility 10 miles    
Events      
Averages and records for this station are not official NWS values.
T = Trace of Precipitation, MM = Missing Value Source: NWS Daily Summary

Daily Weather History Graph

Daily Weather History Graph

Search for Another Location

Airport or City:

Trip Planner

Search our weather history database for the weather conditions in past years. The results will help you decide how hot, cold, wet, or windy it might be!

Date:

Astronomy

Mar. 18, 2014 Rise Set
Actual Time 7:07 AM CDT 7:11 PM CDT
Civil Twilight 6:43 AM CDT 7:35 PM CDT
Nautical Twilight 6:15 AM CDT 8:03 PM CDT
Astronomical Twilight 5:47 AM CDT 8:31 PM CDT
Moon 9:17 PM CDT (3/18) 8:06 AM CDT (3/18)
Length of Visible Light 12h 51m
Length of Day
12h 03m
Waning Gibbous, 96% of the Moon is Illuminated
Mar 18
Waning Gibbous
Mar 23
Last Quarter
Mar 30
New
Apr 7
First Quarter
Apr 15
Full

Hourly Weather History & Observations

Time (CDT) Temp. Dew Point Humidity Pressure Visibility Wind Dir Wind Speed Gust Speed Precip Events Conditions
12:15 AM 41.0 °F 35.6 °F 81% 29.89 in 10.0 mi Calm Calm - N/A   Overcast
12:35 AM 41.0 °F 33.8 °F 76% 29.88 in 10.0 mi Calm Calm - N/A   Scattered Clouds
12:55 AM 39.2 °F 35.6 °F 87% 29.90 in 10.0 mi Calm Calm - N/A   Clear
1:15 AM 39.2 °F 35.6 °F 87% 29.91 in 10.0 mi Calm Calm - N/A   Scattered Clouds
1:35 AM 39.2 °F 35.6 °F 87% 29.90 in 10.0 mi Calm Calm - N/A   Mostly Cloudy
1:55 AM 39.2 °F 35.6 °F 87% 29.90 in 10.0 mi Calm Calm - N/A   Overcast
2:15 AM 39.2 °F 35.6 °F 87% 29.90 in 10.0 mi Calm Calm - N/A   Overcast
2:35 AM 41.0 °F 35.6 °F 81% 29.89 in 10.0 mi Calm Calm - N/A   Overcast
2:55 AM 41.0 °F 35.6 °F 81% 29.88 in 10.0 mi Calm Calm - N/A   Overcast
3:15 AM 41.0 °F 35.6 °F 81% 29.89 in 10.0 mi Calm Calm - N/A   Overcast
3:35 AM 41.0 °F 35.6 °F 81% 29.89 in 10.0 mi Calm Calm - N/A   Overcast
3:55 AM 41.0 °F 35.6 °F 81% 29.90 in 10.0 mi Calm Calm - N/A   Overcast
4:15 AM 41.0 °F 35.6 °F 81% 29.91 in 10.0 mi Calm Calm - N/A   Overcast
4:35 AM 41.0 °F 35.6 °F 81% 29.92 in 10.0 mi Calm Calm - N/A   Overcast
4:55 AM 41.0 °F 35.6 °F 81% 29.92 in 10.0 mi Calm Calm - N/A   Overcast
5:15 AM 41.0 °F 35.6 °F 81% 29.93 in 10.0 mi Calm Calm - N/A   Overcast
5:35 AM 41.0 °F 35.6 °F 81% 29.94 in 10.0 mi Calm Calm - N/A   Overcast
5:55 AM 41.0 °F 35.6 °F 81% 29.95 in 10.0 mi Calm Calm - N/A   Overcast
6:15 AM 41.0 °F 35.6 °F 81% 29.95 in 10.0 mi Calm Calm - N/A   Overcast
6:35 AM 41.0 °F 35.6 °F 81% 29.95 in 10.0 mi Calm Calm - N/A   Overcast
6:55 AM 41.0 °F 35.6 °F 81% 29.95 in 10.0 mi Calm Calm - N/A   Overcast
7:15 AM 41.0 °F 35.6 °F 81% 29.95 in 10.0 mi Calm Calm - N/A   Overcast
7:35 AM 41.0 °F 35.6 °F 81% 29.95 in 10.0 mi Calm Calm - N/A   Overcast
7:55 AM 42.8 °F 35.6 °F 76% 29.95 in 10.0 mi Calm Calm - N/A   Overcast
8:15 AM 42.8 °F 37.4 °F 81% 29.97 in 10.0 mi Calm Calm - N/A   Overcast
8:35 AM 44.6 °F 35.6 °F 71% 29.97 in 10.0 mi Calm Calm - N/A   Overcast
8:55 AM 46.4 °F 37.4 °F 71% 29.97 in 10.0 mi Calm Calm - N/A   Scattered Clouds
9:15 AM 48.2 °F 37.4 °F 66% 29.97 in 10.0 mi ENE 3.5 mph - N/A   Clear
9:35 AM 48.2 °F 35.6 °F 62% 29.97 in 10.0 mi Calm Calm - N/A   Clear
9:55 AM 50.0 °F 37.4 °F 62% 29.97 in 10.0 mi NNE 3.5 mph - N/A   Clear
10:15 AM 51.8 °F 37.4 °F 58% 29.98 in 10.0 mi North 3.5 mph - N/A   Clear
10:35 AM 51.8 °F 37.4 °F 58% 29.97 in 10.0 mi Calm Calm - N/A   Clear
10:55 AM 51.8 °F 37.4 °F 58% 29.97 in 10.0 mi Calm Calm - N/A   Clear
11:15 AM 53.6 °F 37.4 °F 54% 29.97 in 10.0 mi Calm Calm - N/A   Clear
11:35 AM 55.4 °F 37.4 °F 51% 29.97 in 10.0 mi NNW 3.5 mph - N/A   Clear
11:55 AM 57.2 °F 37.4 °F 48% 29.96 in 10.0 mi Calm Calm - N/A   Clear
12:15 PM 57.2 °F 39.2 °F 51% 29.95 in 10.0 mi Calm Calm - N/A   Clear
12:35 PM 60.8 °F 39.2 °F 45% 29.95 in 10.0 mi SSE 4.6 mph - N/A   Clear
12:55 PM 60.8 °F 39.2 °F 45% 29.95 in 10.0 mi Calm Calm - N/A   Clear
1:15 PM 62.6 °F 37.4 °F 39% 29.95 in 10.0 mi Calm Calm - N/A   Clear
1:35 PM 64.4 °F 37.4 °F 37% 29.94 in 10.0 mi Calm Calm - N/A   Clear
1:55 PM 66.2 °F 39.2 °F 37% 29.93 in 10.0 mi Calm Calm - N/A   Clear
2:15 PM 64.4 °F 41.0 °F 42% 29.93 in 10.0 mi South 12.7 mph - N/A   Clear
2:35 PM 64.4 °F 41.0 °F 42% 29.94 in 10.0 mi South 11.5 mph - N/A   Clear
2:55 PM 62.6 °F 41.0 °F 45% 29.94 in 10.0 mi South 13.8 mph 21.9 mph N/A   Clear
3:15 PM 62.6 °F 41.0 °F 45% 29.94 in 10.0 mi SSE 11.5 mph 18.4 mph N/A   Clear
3:35 PM 64.4 °F 41.0 °F 42% 29.93 in 10.0 mi South 9.2 mph - N/A   Clear
3:55 PM 64.4 °F 41.0 °F 42% 29.93 in 10.0 mi SE 9.2 mph - N/A   Clear
4:15 PM 64.4 °F 41.0 °F 42% 29.92 in 10.0 mi SE 10.4 mph 16.1 mph N/A   Clear
4:35 PM 66.2 °F 41.0 °F 40% 29.93 in 10.0 mi South 10.4 mph 18.4 mph N/A   Clear
4:55 PM 64.4 °F 42.8 °F 45% 29.93 in 10.0 mi SSE 8.1 mph 19.6 mph N/A   Clear
5:15 PM 64.4 °F 42.8 °F 45% 29.93 in 10.0 mi SSE 11.5 mph - N/A   Clear
5:35 PM 64.4 °F 42.8 °F 45% 29.93 in 10.0 mi SE 10.4 mph 16.1 mph N/A   Clear
5:55 PM 62.6 °F 44.6 °F 52% 29.93 in 10.0 mi SE 12.7 mph - N/A   Clear
6:15 PM 60.8 °F 44.6 °F 55% 29.94 in 10.0 mi SE 11.5 mph - N/A   Clear
6:35 PM 60.8 °F 44.6 °F 55% 29.94 in 10.0 mi SSE 11.5 mph - N/A   Clear
6:55 PM 59.0 °F 46.4 °F 63% 29.94 in 10.0 mi SE 10.4 mph - N/A   Clear
7:15 PM 57.2 °F 46.4 °F 67% 29.95 in 10.0 mi SE 6.9 mph - N/A   Clear
7:35 PM 55.4 °F 46.4 °F 72% 29.95 in 10.0 mi SSE 8.1 mph - N/A   Clear
7:55 PM 55.4 °F 46.4 °F 72% 29.96 in 10.0 mi SSE 6.9 mph - N/A   Clear
8:15 PM 55.4 °F 46.4 °F 72% 29.97 in 10.0 mi SSE 8.1 mph - N/A   Clear
8:35 PM 53.6 °F 46.4 °F 77% 29.98 in 10.0 mi SSE 9.2 mph - N/A   Clear
8:55 PM 53.6 °F 46.4 °F 77% 29.99 in 10.0 mi SSE 6.9 mph - N/A   Clear
9:15 PM 53.6 °F 46.4 °F 77% 30.00 in 10.0 mi SSE 8.1 mph - N/A   Clear
9:35 PM 53.6 °F 46.4 °F 77% 30.00 in 10.0 mi SSE 4.6 mph - N/A   Clear
9:55 PM 51.8 °F 46.4 °F 82% 30.00 in 10.0 mi SE 6.9 mph - N/A   Clear
10:15 PM 51.8 °F 46.4 °F 82% 29.99 in 10.0 mi SSE 8.1 mph - N/A   Clear
10:35 PM 51.8 °F 46.4 °F 82% 30.00 in 10.0 mi SSE 5.8 mph - N/A   Clear
10:55 PM 50.0 °F 46.4 °F 87% 30.01 in 10.0 mi Calm Calm - N/A   Clear
11:15 PM 50.0 °F 46.4 °F 87% 30.01 in 10.0 mi Calm Calm - N/A   Clear
11:35 PM 51.8 °F 48.2 °F 88% 30.02 in 7.0 mi Calm Calm - N/A   Clear
11:55 PM 48.2 °F 44.6 °F 87% 30.02 in 7.0 mi Calm Calm - N/A   Clear